Regional Weather Roundup
Issued by NWS Spokane, WA

Home | Current Version | Previous Version | Text Only | Print | Product List | Glossary On
Versions: 1 2 3 4 5 6 7 8 9 10 11 12 13 14 15 16 17 18 19 20 21 22 23 24 25 26 27 28 29 30 31 32 33 34 35 36 37 38 39 40 41 42 43 44 45 46 47 48 49 50
000
NZUS01 KOTX 051910
RWROTX
EASTERN WASHINGTON/NORTHERN IDAHO ROUNDUP
NATIONAL WEATHER SERVICE, SPOKANE WA
1100 AM PST THU MAR 05 2015

Note: "fair" indicated few or no clouds below 12,000 feet with no
significant weather and/or obstructions to visibility.

...NORTHEAST WASHINGTON AND NORTHERN IDAHO PANHANDLE...

CITY           SKY/WX    TMP DP  RH WIND       PRES   REMARKS
SPOKANE INTL   PTSUNNY   41  19  41 E3        30.31F
SPOKANE DOWNTO SUNNY     43  21  41 CALM      30.34F
COEUR D ALENE  MOSUNNY   43  19  39 SE3       30.32F
DEER PARK      SUNNY     42  18  37 CALM      30.33F
SANDPOINT      PTSUNNY   36  19  51 CALM      30.34F

...SOUTHEAST WASHINGTON AND SOUTHERN IDAHO PANHANDLE...

CITY           SKY/WX    TMP DP  RH WIND       PRES   REMARKS
WALLA WALLA    MOSUNNY   51  20  29 N3        30.33S
PULLMAN/MOSCOW MOSUNNY   45  19  35 SE10      30.34R
LEWISTON       MOSUNNY   45  23  42 VRB5      30.36S
LOWELL           N/A     44  16  32 CALM      30.41F

...COLUMBIA BASIN...

CITY           SKY/WX    TMP DP  RH WIND       PRES   REMARKS
EPHRATA        MOSUNNY   45  21  38 VRB5      30.33S
MOSES LAKE     MOSUNNY   45  21  38 CALM      30.35S
TRI CITIES     MOSUNNY   45  24  43 N3        30.38R
HERMISTON      MOSUNNY   47  27  45 CALM      30.34F
PENDLETON      MOSUNNY   50  21  32 NW6       30.31S

...EAST SLOPES CASCADES...

CITY           SKY/WX    TMP DP  RH WIND       PRES   REMARKS
THE DALLES     MOSUNNY   45  31  58 CALM      30.36F
YAKIMA         PTSUNNY   50  28  42 CALM      30.33S
ELLENSBURG     PTSUNNY   45  27  49 S3        30.30F
WENATCHEE      PTSUNNY   43  24  47 CALM      30.33F
OMAK           MOSUNNY   42  21  43 CALM      30.33F

...SOUTHERN BRITISH COLUMBIA...

CITY           SKY/WX    TMP DP  RH WIND       PRES   REMARKS
PENTICTON      PTSUNNY   41  19  42 NE3       30.33F
CASTLEGAR      PTSUNNY   37  16  41 VRB2      30.35F
CRANBROOK      PTSUNNY   25  12  58 CALM      30.30

...WESTERN MONTANA...

CITY           SKY/WX    TMP DP  RH WIND       PRES   REMARKS
MISSOULA       SUNNY     37  14  38 CALM      30.32F

...NEIGHBORING CITIES...

CITY           SKY/WX    TMP DP  RH WIND       PRES   REMARKS
SEATTLE        MOSUNNY   51  28  41 CALM      30.39S
CALGARY        CLOUDY    46  14  27 W21       30.00S



USA.gov is the U.S. government's official web portal to all federal, state and local government web resources and services.